Regional Weather Roundup
Issued by NWS Little Rock, AR

Home | Current Version | Previous Version | Graphics & Text | Print | Product List | Glossary On
Versions: 1 2 3 4 5 6 7 8 9 10 11 12 13 14 15 16 17 18 19 20 21 22 23 24 25 26 27 28 29 30 31 32 33 34 35 36 37 38 39 40 41 42 43 44 45 46 47 48 49 50
000
ASUS44 KLZK 281105
RWRLZK

WEATHER ROUNDUP FOR ARKANSAS
NATIONAL WEATHER SERVICE LITTLE ROCK AR
600 AM CDT FRI APR 28 2017

NOTE: "FAIR" INDICATES FEW OR NO CLOUDS BELOW 12,000 FEET WITH NO
SIGNIFICANT WEATHER AND/OR OBSTRUCTIONS TO VISIBILITY.

ARZ001-003-010-029-281200-
NORTHWEST ARKANSAS

CITY           SKY/WX    TMP DP  RH WIND       PRES   REMARKS
FAYETTEVILLE   CLOUDY    56  55  97 E5        29.67F
FORT SMITH     CLOUDY    58  52  80 E12       29.68F
HARRISON       MOCLDY    53  51  93 SE10      29.75F
BENTONVILLE    CLOUDY    55  52  88 E8G18     29.68F
ROGERS         LGT RAIN  55  53  93 E10       29.68F
SILOAM SPGS    CLOUDY    55  50  82 E10G16    29.65F
HIGHFILL       TSTM      56  54  93 E7        29.67F
SPRINGDALE     CLOUDY    57  54  88 E8G16     29.68
$$

ARZ004-005-016-281200-
NORTH CENTRAL ARKANSAS

CITY           SKY/WX    TMP DP  RH WIND       PRES   REMARKS
BATESVILLE     CLOUDY    54  50  87 CALM      29.83S
FLIPPIN        PTCLDY   N/A N/A N/A E8        29.73F
MTN HOME       CLOUDY    54  51  90 SE7       29.75F
$$

ARZ040-041-281200-
WEST CENTRAL ARKANSAS

CITY           SKY/WX    TMP DP  RH WIND       PRES   REMARKS
MENA           CLOUDY    59  57  94 E6        29.71S
MOUNT IDA      CLOUDY    58  55  90 CALM      29.70R
$$

ARZ009-017-025-026-028-281200-
NORTHEAST ARKANSAS

CITY           SKY/WX    TMP DP  RH WIND       PRES   REMARKS
CORNING        PTSUNNY   57  55  94 E7        29.84F
JONESBORO      CLOUDY    56  53  90 NE8       29.84R
NEWPORT        MOCLDY    57  55  93 NE7       29.82R
WALNUT RIDGE   CLOUDY    57  52  82 E7        29.83F
BLYTHEVILLE      N/A     56  55  97 CALM      29.86R
$$

ARZ022-023-033-042-044-281200-
CENTRAL ARKANSAS

CITY           SKY/WX    TMP DP  RH WIND       PRES   REMARKS
LITTLE ROCK    CLOUDY    56  56 100 NE9       29.76S
N LITTLE ROCK    N/A     56  54  93 E6        29.77S
JACKSONVILLE   CLOUDY    57  57  98 NE9       29.76S
CONWAY           N/A     57  55  94 NE7       29.75F
SEARCY         CLOUDY    57  56  96 NE7       29.81S
HOT SPRINGS    CLOUDY    60  56  86 E8        29.73R
RUSSELLVILLE   CLOUDY    59  54  83 E7        29.74F
CLINTON          N/A     54  52  94 CALM      29.79F
$$

ARZ036-281200-
EAST ARKANSAS

CITY           SKY/WX    TMP DP  RH WIND       PRES   REMARKS
WEST MEMPHIS   CLOUDY    57  56  96 NE3       29.80S
$$

ARZ050-053-066-070-073-281200-
SOUTHWEST ARKANSAS

CITY           SKY/WX    TMP DP  RH WIND       PRES   REMARKS
ARKADELPHIA    CLOUDY    58  56  93 N6        29.73S
CAMDEN         CLOUDY    59  55  88 E3        29.71S
TEXARKANA      CLOUDY    58  57  97 NE6       29.67R
EL DORADO      CLOUDY    62  59  90 SE6       29.70S
DE QUEEN       CLOUDY    60  57  89 E7        29.67R
$$

ARZ056-057-069-281200-
SOUTHEAST ARKANSAS

CITY           SKY/WX    TMP DP  RH WIND       PRES   REMARKS
PINE BLUFF       N/A     59  57  93 E6        29.75S
STUTTGART      CLOUDY    57  46  67 E8        29.78S
MONTICELLO     CLEAR     57  55  93 E5        29.75R

$$





USA.gov is the U.S. government's official web portal to all federal, state and local government web resources and services.